Zurück zum Katalog

STARLINK-35145

AktivKommunikationVLEO
NORAD 65685·PAYLOAD·🇺🇸 United States

Gestartet Sep 21, 2025 von Cape Canaveral Space Force Station

Loading…

Nächste Überflüge (nächste 24 Stunden)

TLE

AktuellSource: CelesTrak SupGP

Epoche: Sep 14, 2026, 20:53 UTC

1 65685C 25212K   26257.87062500  .00007471  00000+0  22064-3 0  2574
2 65685  53.1580 183.7684 0001335 102.0090 230.3709 15.34397537    17

Verfolge STARLINK-35145 in Echtzeit mit AllMySat

Download on the App Store